Temp
22 21 21 21 21 21 21 21 21 21 21 21 20 20 20 20 20 20 20 20 20 20 19 19 19 19 19 19 19 18 18 18 18 18 18 17 17 17 17 17 17 16
21 22 21 21 21 21 21 21 21 21 21 21 21 20 21 21 20 20 20 20 20 19 19 19 19 19 19 19 19 18 18 18 18 18 18 17 17 17 17 16 16 16
21 22 22 21 21 21 21 21 21 21 21 21 21 21 21 21 20 20 20 20 20 19 19 19 19 19 19 18 18 18 18 18 17 17 17 17 17 17 17 17 16 16
22 22 22 22 21 21 21 21 21 21 21 21 21 21 21 21 20 20 20 20 20 19 19 19 19 19 19 18 18 18 18 17 17 17 17 17 17 17 16 17 16 16
22 21 22 22 22 21 21 21 21 21 21 21 21 21 21 21 20 20 20 20 20 19 19 19 19 19 18 18 18 18 17 17 17 17 17 16 16 16 16 16 16 16
22 21 21 21 21 21 21 21 21 21 21 21 21 21 21 21 20 20 20 20 20 19 19 19 18 18 18 18 18 17 17 17 17 17 17 16 16 16 16 16 16 16
21 22 21 21 21 21 21 21 21 21 21 21 21 21 21 21 20 20 20 20 20 19 19 19 18 18 18 18 18 17 17 17 17 17 16 16 16 16 15 16 15 15
21 22 21 21 21 21 21 21 21 21 21 21 21 21 21 21 21 20 20 20 20 19 19 19 18 18 18 18 18 17 17 17 17 16 16 16 15 15 15 15 15 14
21 22 21 21 21 21 21 21 21 21 21 21 21 21 21 21 21 20 20 20 20 19 19 19 18 18 18 18 18 17 17 16 16 16 16 15 15 15 15 14 14 14
21 21 22 21 21 21 21 21 21 21 21 21 21 21 21 21 21 20 20 20 20 19 19 19 18 18 18 18 17 17 16 16 16 16 15 15 15 14 14 14 14 13
21 21 22 22 22 22 22 21 21 21 21 21 21 21 21 21 21 20 20 20 20 19 19 19 18 18 18 17 17 17 16 16 16 15 15 15 15 14 14 14 14 13
21 21 22 22 22 22 22 22 21 21 21 21 21 21 21 21 21 20 20 20 20 19 19 19 18 18 18 17 17 17 16 16 15 15 15 15 14 14 14 13 13 13
21 21 22 22 22 22 22 22 22 21 21 21 21 21 21 21 21 20 20 20 19 19 19 19 18 18 17 17 17 16 16 15 15 15 14 14 14 13 13 13 13 13
21 21 22 22 22 22 22 22 22 21 21 21 21 21 21 21 21 20 20 20 19 19 19 18 18 18 17 17 16 16 16 15 15 15 14 14 13 13 13 13 12 12
21 21 22 22 22 22 22 22 22 21 22 21 21 21 21 21 21 20 20 19 19 19 18 18 18 17 17 17 16 16 16 15 15 15 14 13 13 13 13 13 13 12
21 21 21 22 22 22 22 22 22 21 21 21 21 21 21 21 20 20 20 19 19 18 18 18 18 17 17 17 16 16 16 15 15 14 14 13 13 13 13 13 13 13
21 21 21 21 21 22 22 22 21 21 21 21 21 21 21 20 20 20 20 19 19 18 18 18 17 17 17 16 16 16 16 15 15 14 14 13 13 13 13 13 13 13
21 21 21 21 21 21 21 21 21 21 21 21 21 21 20 20 20 20 19 19 19 18 18 18 17 17 17 16 16 16 16 15 15 14 14 13 13 13 13 13 13 13
21 21 21 21 21 21 21 21 21 21 21 21 21 20 20 20 20 20 19 19 18 18 18 17 17 17 17 16 16 16 16 15 15 14 14 13 13 13 13 13 13 13
21 21 21 21 21 21 21 21 21 21 21 21 20 20 20 19 19 19 19 18 18 18 17 17 17 17 16 16 16 16 15 15 14 14 14 13 13 13 13 13 13 13
21 21 21 21 21 21 21 21 21 20 20 20 20 20 20 19 19 19 18 18 18 18 17 17 16 16 16 16 16 15 15 15 14 14 13 13 13 13 13 13 13 13
21 21 21 21 21 20 20 20 20 20 20 20 20 20 19 19 18 18 18 18 17 17 17 16 15 15 15 15 15 15 15 15 14 14 13 13 13 13 13 13 13 13
21 21 21 21 21 20 20 20 20 20 20 20 19 19 18 18 18 18 18 18 17 17 17 16 15 15 15 15 15 15 15 15 14 14 13 13 13 13 13 13 13 13
22 21 21 21 21 21 20 20 20 20 19 20 19 19 18 17 17 17 16 16 16 15 15 15 15 14 14 15 14 14 15 15 14 14 13 13 13 12 13 13 13 13
22 22 22 21 21 21 21 21 20 20 19 19 19 18 18 17 16 16 15 15 15 15 15 15 15 14 14 14 14 14 14 14 14 14 13 13 13 12 12 12 12 12
22 22 22 22 21 21 21 21 20 19 19 19 18 17 17 16 15 15 15 15 15 15 15 15 15 14 14 14 14 14 14 13 13 13 13 13 13 12 12 12 12 12
Height
801 802 803 803 805 805 806 807 807 808 808 809 809 810 810 810 811 811 811 811 811 811 811 811 810 810 809 809 809 809 808 808 808 808 808 808 808 808 808 808 808 808
801 802 803 803 804 805 806 806 807 808 808 809 809 810 810 811 811 811 811 811 811 811 811 811 811 810 810 810 810 810 809 809 809 809 809 809 809 809 809 809 809 809
800 801 802 803 804 805 805 806 807 808 808 809 809 810 810 811 811 811 811 811 811 812 812 812 812 811 811 811 811 810 810 810 810 810 810 810 810 810 810 810 810 810
799 800 801 802 803 804 805 806 807 807 808 809 809 810 810 811 811 811 811 812 811 812 812 812 812 811 811 811 811 811 811 811 812 812 812 812 812 812 812 812 812 812
798 799 800 801 802 803 804 805 806 807 807 808 809 810 810 810 811 811 811 811 811 812 812 812 812 812 812 812 812 812 812 812 813 813 813 814 814 814 814 814 813 813
797 798 799 800 801 802 803 804 805 806 807 808 808 809 810 810 810 810 810 811 811 811 812 812 813 813 813 812 812 813 813 813 813 814 814 815 815 815 815 815 815 815
795 796 797 799 800 801 802 803 804 805 806 807 807 808 809 809 810 810 810 810 811 811 812 812 812 813 813 812 812 812 813 813 814 814 815 816 816 816 817 816 816 816
793 794 795 797 798 799 801 802 803 804 805 806 806 807 808 808 808 809 809 810 810 811 811 811 812 812 813 812 812 812 813 814 814 815 816 817 817 817 818 818 817 817
791 792 793 795 796 797 799 800 801 802 803 804 805 806 806 807 807 807 808 809 809 810 810 811 811 812 812 812 812 812 813 814 815 816 817 817 818 818 819 819 818 818
790 791 792 793 794 795 797 798 799 801 802 803 804 804 805 805 805 806 807 808 808 809 809 810 811 811 812 812 813 813 813 814 816 816 817 818 818 819 819 819 819 819
788 789 790 791 792 793 795 796 797 799 800 801 802 803 803 804 804 805 806 806 807 808 808 809 810 811 812 812 813 813 814 815 816 817 818 818 819 819 819 819 819 819
787 788 788 789 790 791 793 794 796 797 798 799 800 801 802 802 803 804 804 805 806 806 807 809 810 811 811 812 813 813 814 815 816 817 818 818 819 819 819 819 819 819
784 785 786 788 789 790 791 793 794 795 796 797 798 799 800 800 801 802 803 803 804 805 806 807 809 810 811 812 812 813 814 815 816 817 818 818 819 819 819 820 820 820
781 782 784 786 787 788 790 791 792 793 794 795 796 797 797 798 799 800 801 801 802 803 805 806 807 809 810 810 811 813 813 814 815 816 817 818 819 819 819 820 820 820
778 780 781 783 785 786 788 789 789 791 792 793 794 795 795 796 797 797 798 799 800 801 803 804 805 807 808 809 810 811 812 813 814 815 816 817 818 819 820 820 820 820
777 778 779 781 782 783 785 786 787 789 790 791 792 792 793 794 795 795 796 797 798 799 801 802 803 805 806 807 808 809 810 812 813 814 815 816 817 818 820 820 820 821
775 776 777 778 779 780 782 783 785 786 788 789 790 790 791 792 793 793 794 795 796 797 799 800 802 803 804 806 807 807 809 810 812 813 815 816 817 818 819 820 820 821
773 774 775 776 777 779 780 781 783 784 786 787 787 788 789 790 790 791 792 793 794 796 797 798 800 802 803 805 806 807 808 810 811 813 814 816 817 818 819 820 820 821
770 772 773 774 776 777 779 780 781 782 783 784 785 786 787 787 788 789 790 792 793 794 796 797 799 800 802 804 805 806 808 809 810 812 814 815 816 818 819 819 820 821
766 768 770 772 773 775 777 778 779 780 781 782 783 784 784 785 786 788 789 790 792 793 795 797 799 801 802 803 805 806 807 809 811 812 814 815 816 817 818 819 819 820
762 764 766 768 771 773 774 775 777 778 779 780 781 781 781 782 783 785 787 789 791 793 795 797 800 802 803 804 805 806 807 809 810 812 813 815 816 817 818 818 818 819
757 759 762 764 767 769 770 771 773 774 776 777 778 778 779 780 781 784 786 788 790 792 794 797 799 801 802 803 805 806 807 808 810 812 813 815 816 817 817 817 818 819
753 755 757 759 762 763 765 766 768 770 771 773 774 775 776 777 779 782 784 785 787 789 791 794 797 800 801 802 803 805 806 807 809 811 813 814 816 816 816 816 817 819
749 750 752 754 756 757 759 760 762 764 766 767 769 770 772 774 777 780 782 784 786 788 790 793 796 798 800 801 802 803 804 806 808 809 812 814 814 815 816 816 817 818
744 746 747 748 750 751 753 754 756 758 760 762 764 766 768 771 773 775 777 779 782 785 788 791 793 796 798 799 800 802 803 805 807 808 810 812 813 814 815 815 816 818
739 741 742 743 745 746 747 749 751 753 756 758 760 762 764 765 767 768 770 773 777 781 785 788 791 794 796 797 797 799 801 803 805 806 808 810 812 813 814 815 816 817
Wind_Speed
17 15 16 16 15 14 14 13 12 11 10 9 9 8 7 7 8 9 10 10 10 11 12 11 11 12 13 13 15 16 16 15 15 15 16 18 18 18 18 18 18 18
16 16 17 17 16 14 14 13 11 10 9 9 9 8 6 6 8 10 11 11 11 11 11 11 12 13 14 15 15 16 16 16 17 17 17 17 17 17 18 17 17 17
15 16 19 18 17 15 14 13 12 11 10 10 10 8 6 8 10 11 11 11 11 12 12 12 13 14 15 16 16 16 16 17 18 18 18 18 18 18 17 16 17 17
15 17 20 19 17 16 16 14 14 13 13 11 10 8 8 10 12 13 13 11 11 12 13 13 14 14 15 15 16 16 17 17 17 17 18 20 18 18 17 16 17 17
18 18 20 19 17 17 16 16 15 15 14 12 10 10 9 11 13 14 13 12 11 12 13 13 13 14 14 14 15 17 17 18 17 16 18 19 18 17 16 15 16 17
20 20 20 19 18 18 16 17 17 15 14 13 12 11 10 12 14 14 14 13 12 12 12 13 13 14 14 14 15 17 17 17 16 15 16 17 16 15 14 14 15 17
22 22 21 20 20 20 18 18 18 16 15 14 13 12 12 13 14 14 14 14 13 12 13 13 13 14 14 14 16 17 17 17 16 15 16 15 14 14 14 14 15 17
24 24 23 21 21 22 20 18 18 17 16 15 13 13 13 13 14 15 16 15 14 13 13 13 14 14 14 14 16 17 18 17 16 15 15 15 14 14 15 15 16 17
26 26 26 24 23 24 22 20 19 19 18 16 15 14 14 13 14 17 18 16 14 14 14 14 14 14 15 15 15 17 18 18 16 14 15 14 15 16 16 16 17 17
27 27 27 26 26 26 24 21 20 20 19 17 16 16 15 14 16 18 19 17 15 15 14 15 16 16 15 15 15 16 17 18 16 15 14 15 16 17 17 17 17 18
29 28 28 28 28 27 25 23 22 21 20 18 18 18 17 16 18 20 19 17 16 16 16 16 16 16 16 16 16 16 17 17 16 15 15 15 16 16 16 17 17 18
30 30 30 30 30 29 27 25 24 23 21 20 20 20 19 18 21 22 20 18 17 17 16 17 17 17 17 17 17 17 17 18 17 16 16 15 16 15 15 15 16 16
32 31 31 31 30 29 29 27 25 24 23 22 22 22 20 21 22 23 21 20 19 18 18 18 18 18 17 18 18 18 19 19 18 17 16 16 15 15 15 14 14 14
34 33 32 32 30 29 30 29 27 26 24 23 24 23 23 23 24 24 23 22 21 20 19 19 19 19 19 19 19 19 19 19 18 17 17 17 16 15 14 13 13 12
35 34 34 34 32 30 30 30 29 27 25 24 25 25 25 26 26 25 25 24 23 22 21 21 20 20 20 20 20 20 20 20 19 18 18 18 18 16 14 12 11 11
35 34 34 35 35 33 32 31 30 29 27 26 27 27 28 28 28 27 27 26 26 25 24 23 21 21 21 21 21 21 21 21 20 19 19 19 19 18 15 13 11 10
34 34 34 34 35 35 34 33 31 30 28 27 28 29 30 30 30 29 29 29 28 28 26 25 23 22 22 22 21 21 22 22 22 21 21 20 19 18 16 13 12 11
34 34 33 33 34 34 34 34 32 31 29 28 29 30 31 32 32 32 31 31 30 29 28 26 25 23 23 23 22 21 22 22 22 23 22 20 18 18 16 13 12 12
35 34 34 34 34 34 33 33 32 31 31 30 30 32 33 33 34 33 33 32 31 30 28 26 25 24 23 24 23 21 21 23 24 24 23 21 18 17 15 12 11 11
35 34 34 34 34 33 33 32 32 32 31 31 32 33 34 35 35 35 34 33 31 30 28 26 25 24 24 23 23 21 21 22 24 24 23 21 18 15 13 11 10 10
35 35 34 34 33 33 32 32 32 32 31 32 33 35 37 37 37 36 35 33 31 29 27 26 24 23 23 23 22 21 20 21 23 24 24 21 17 15 13 10 9 9
36 35 34 34 33 32 33 33 33 32 32 33 35 37 38 38 37 36 35 33 31 29 28 26 25 23 23 23 23 22 22 21 22 23 23 21 18 16 12 10 9 9
36 35 35 34 33 33 34 34 34 33 33 35 37 38 38 37 37 36 35 34 33 31 29 28 27 25 24 25 24 24 23 21 19 21 22 20 18 16 12 10 9 9
37 36 36 35 35 35 36 36 35 35 36 37 40 40 38 37 36 34 33 32 32 31 30 29 28 26 25 26 25 24 22 19 18 20 21 19 17 15 13 11 11 11
37 37 37 37 37 38 38 38 36 36 37 39 41 41 39 37 35 35 34 34 33 31 29 30 30 28 26 27 26 24 21 19 21 22 22 20 18 16 14 13 13 12
39 39 39 38 39 40 40 39 38 37 38 40 40 39 39 37 37 39 39 37 35 32 31 31 31 29 28 27 26 23 20 21 24 24 22 22 20 18 17 17 16 13
Wind_Direction
177 175 171 168 165 162 159 156 153 150 146 141 134 129 123 110 99 106 112 108 101 100 97 92 94 95 93 98 98 94 95 94 94 96 97 95 93 90 89 87 84 82
178 182 178 171 168 166 163 162 159 156 156 153 149 141 129 116 116 122 119 111 108 103 96 95 101 100 99 103 102 98 98 97 100 104 104 103 101 98 97 94 91 88
177 181 178 173 170 171 170 168 167 163 159 158 157 150 136 127 130 133 127 116 113 108 100 102 107 105 104 106 104 101 102 104 106 108 107 107 107 106 104 101 95 90
181 179 178 175 172 174 176 174 173 171 167 169 170 162 143 134 138 140 135 125 119 113 107 108 112 111 108 109 109 107 108 110 111 112 110 108 109 110 109 107 101 95
185 180 178 177 176 178 181 180 177 175 176 179 174 164 148 141 145 147 141 134 126 120 114 112 116 118 115 114 115 116 116 115 115 116 113 109 109 111 111 110 105 100
188 186 183 182 183 182 184 184 180 179 182 179 169 163 154 146 151 154 149 142 136 131 125 119 120 124 124 124 123 124 124 122 121 120 116 112 111 111 111 111 106 102
192 192 191 191 191 189 187 185 185 186 185 179 173 172 162 152 158 163 160 152 144 141 137 131 129 130 133 134 131 131 130 128 127 123 117 115 113 111 110 111 108 104
194 195 195 195 193 192 194 193 192 191 186 182 182 180 170 163 167 170 168 162 153 148 145 142 139 139 143 144 139 136 134 131 129 124 119 116 113 111 111 113 112 106
199 198 198 198 195 194 197 197 193 191 189 188 186 180 175 175 176 174 171 167 159 153 152 149 148 148 150 151 146 141 136 132 129 124 119 115 113 112 112 114 112 107
204 202 200 200 198 197 199 197 194 192 192 193 189 183 180 181 181 177 174 171 164 159 158 157 156 155 154 153 150 145 139 134 130 124 118 116 116 115 113 112 110 107
208 206 204 203 200 200 200 198 196 196 197 198 194 189 187 185 183 181 179 178 173 167 164 163 162 159 156 152 150 148 143 137 132 126 120 119 119 117 114 112 110 109
212 211 209 207 205 204 203 201 199 199 201 201 196 192 191 189 186 185 185 183 178 174 170 167 165 163 158 154 153 150 145 139 134 129 125 123 122 118 115 112 111 111
214 214 213 211 211 210 207 204 201 200 202 202 199 197 194 189 187 188 188 187 182 177 174 170 167 164 159 157 156 153 148 143 139 134 130 128 126 121 117 115 112 112
216 216 215 214 215 213 209 207 203 201 203 204 202 201 197 191 191 190 188 187 185 181 177 172 169 166 162 160 158 156 154 150 147 143 137 133 131 127 123 121 119 117
216 217 216 215 216 215 211 208 205 203 205 207 205 203 198 194 194 193 190 186 184 181 177 174 171 168 165 164 163 162 161 159 155 151 146 141 137 134 131 129 127 126
216 217 217 215 215 216 214 211 208 205 206 209 207 202 198 195 195 194 192 188 183 179 176 174 173 170 168 168 170 169 167 164 161 158 154 149 143 137 131 126 122 125
217 218 218 216 215 216 216 214 210 208 208 209 206 201 198 195 195 193 191 188 184 179 177 176 175 174 172 172 174 175 172 169 167 164 159 154 149 140 130 121 116 117
218 218 218 218 217 217 217 216 213 210 209 208 204 200 197 195 194 194 190 187 184 181 179 179 178 177 176 174 174 176 176 175 172 167 161 157 154 144 132 125 120 117
217 218 218 219 219 218 218 217 214 211 210 209 206 201 198 194 194 193 190 187 185 182 181 181 180 180 179 176 174 176 177 177 175 169 164 162 157 146 136 130 126 122
215 216 218 220 220 219 218 217 215 213 212 211 206 201 196 194 192 191 189 187 186 184 181 181 180 179 178 177 175 175 176 176 175 171 167 164 160 152 145 139 133 132
213 215 217 218 219 218 218 218 216 214 212 210 206 202 199 197 194 191 188 186 186 184 180 177 175 174 175 176 173 171 170 168 169 170 168 165 163 162 157 144 136 138
212 213 214 216 216 216 216 216 215 213 211 208 205 202 201 198 193 190 188 185 183 183 179 173 170 170 173 173 170 167 165 161 161 165 166 165 167 169 160 140 134 141
212 213 213 214 213 213 214 215 213 211 209 205 202 200 198 195 191 190 189 186 183 181 178 172 167 168 172 171 168 167 167 166 165 165 165 167 171 170 160 143 143 147
212 213 213 213 212 213 214 214 212 209 206 204 203 200 196 194 190 186 183 182 179 176 174 171 167 168 173 173 170 171 174 177 177 173 169 171 172 170 165 156 150 148
213 213 214 213 212 213 214 213 210 207 205 203 202 199 195 191 187 181 179 179 179 176 177 177 172 171 175 176 175 177 181 182 180 176 174 175 174 172 170 165 155 147
214 214 214 214 214 215 215 213 209 205 202 200 198 196 192 187 184 182 179 177 178 178 179 179 176 175 177 179 179 180 181 181 182 182 180 179 179 179 174 168 161 151